This is the latest recevied weather packets stored in our database for station/object KA3BQE-13. If no packets are shown the sender has not sent any weather packets the latest 1 day(s).
| Time | Temp. | Humidity | Pressure | Rain* | Wind** | Luminosity | Snow |
|---|---|---|---|---|---|---|---|
| 1778036731 | 8.89° C | 92% | 1013 hPa | 0 mm | - | 0 W/m² | - |
| 1778036428 | 8.89° C | 91% | 1012.7 hPa | 0 mm | - | 0 W/m² | - |
| 1778036125 | 8.89° C | 90% | 1012.7 hPa | 0 mm | - | 0 W/m² | - |
| 1778035820 | 8.33° C | 90% | 1012.7 hPa | 0 mm | - | 0 W/m² | - |
| 1778035518 | 8.33° C | 91% | 1012.5 hPa | 0 mm | - | 0 W/m² | - |
| 1778035214 | 8.89° C | 92% | 1012.3 hPa | 0 mm | - | 0 W/m² | - |
| 1778034910 | 8.33° C | 91% | 1012.3 hPa | 0 mm | - | 0 W/m² | - |
| 1778034608 | 8.89° C | 92% | 1012.1 hPa | 0 mm | - | 0 W/m² | - |
| 1778034305 | 8.89° C | 91% | 1011.9 hPa | 0 mm | - | 0 W/m² | - |
| 1778033700 | 8.33° C | 90% | 1011.7 hPa | 0 mm | - | 0 W/m² | - |
| 1778033397 | 8.89° C | 92% | 1011.4 hPa | 0 mm | - | 0 W/m² | - |
| 1778033094 | 8.33° C | 91% | 1011.5 hPa | 0 mm | - | 0 W/m² | - |
| 1778032791 | 8.89° C | 91% | 1011.4 hPa | 0 mm | - | 0 W/m² | - |
| 1778032489 | 8.89° C | 91% | 1011.5 hPa | 0 mm | - | 0 W/m² | - |
| 1778032186 | 8.89° C | 91% | 1011.7 hPa | 0 mm | - | 0 W/m² | - |
| 1778031579 | 8.89° C | 90% | 1011.5 hPa | 0 mm | - | 0 W/m² | - |
| 1778031277 | 8.89° C | 90% | 1011.4 hPa | 0 mm | - | 0 W/m² | - |
| 1778030973 | 8.89° C | 90% | 1011.3 hPa | 0 mm | - | 0 W/m² | - |
| 1778030670 | 8.89° C | 89% | 1011.3 hPa | 0 mm | - | 0 W/m² | - |
| 1778030367 | 8.89° C | 87% | 1011.3 hPa | 0 mm | - | 0 W/m² | - |
| 1778030064 | 8.89° C | 86% | 1010.9 hPa | 0 mm | - | 0 W/m² | - |
| 1778029460 | 9.44° C | 85% | 1011.1 hPa | 0 mm | - | 0 W/m² | - |
| 1778028854 | 9.44° C | 80% | 1010.8 hPa | 0 mm | - | 1 W/m² | - |
| 1778028548 | 9.44° C | 75% | 1010.9 hPa | 0 mm | - | 2 W/m² | - |
| 1778028247 | 9.44° C | 73% | 1010.6 hPa | 0 mm | - | 3 W/m² | - |
* Rain latest hour (hover to see other rain measurements)
** Current wind speed in m/s (hover to see current wind gust speed)